TimePDT,TemperatureF,Dew PointF,Humidity,Sea Level PressureIn,VisibilityMPH,Wind Direction,Wind SpeedMPH,Gust SpeedMPH,PrecipitationIn,Events,Conditions,WindDirDegrees,DateUTC
12:53 AM,57.9,57.0,97,30.11,5.0,South,5.8,-,N/A,,Overcast,170,2013-08-02 07:53:00
1:53 AM,57.9,57.0,97,30.11,10.0,SSW,8.1,-,N/A,,Overcast,200,2013-08-02 08:53:00
2:53 AM,57.9,57.0,97,30.10,10.0,SW,8.1,-,N/A,,Overcast,220,2013-08-02 09:53:00
3:53 AM,57.9,57.0,97,30.10,10.0,SSW,8.1,-,N/A,,Overcast,200,2013-08-02 10:53:00
4:53 AM,57.9,57.0,97,30.10,3.0,SW,9.2,-,0.00,Rain,Light Rain,220,2013-08-02 11:53:00
5:53 AM,57.9,57.0,97,30.10,10.0,SSW,8.1,-,0.00,,Overcast,210,2013-08-02 12:53:00
6:53 AM,57.9,57.0,97,30.11,10.0,SW,9.2,-,N/A,,Overcast,220,2013-08-02 13:53:00
7:39 AM,59.0,57.2,94,30.11,10.0,SW,8.1,-,N/A,,Overcast,220,2013-08-02 14:39:00
7:53 AM,59.0,57.0,93,30.12,10.0,SW,8.1,-,N/A,,Overcast,220,2013-08-02 14:53:00
8:38 AM,60.8,57.2,88,30.12,10.0,SSW,9.2,-,N/A,,Overcast,210,2013-08-02 15:38:00
8:45 AM,60.8,57.2,88,30.12,10.0,SSW,6.9,-,N/A,,Overcast,210,2013-08-02 15:45:00
8:53 AM,59.0,57.0,93,30.13,10.0,SSW,9.2,-,N/A,,Overcast,210,2013-08-02 15:53:00
9:53 AM,60.1,57.0,90,30.13,10.0,SSW,5.8,-,N/A,,Overcast,210,2013-08-02 16:53:00
10:53 AM,61.0,57.0,87,30.14,10.0,SW,9.2,-,N/A,,Overcast,230,2013-08-02 17:53:00
11:28 AM,60.8,57.2,88,30.12,10.0,WSW,8.1,-,N/A,,Overcast,240,2013-08-02 18:28:00
11:53 AM,61.0,57.0,87,30.14,10.0,WSW,9.2,-,N/A,,Overcast,240,2013-08-02 18:53:00
12:53 PM,61.0,57.0,87,30.15,10.0,WSW,9.2,-,N/A,,Overcast,250,2013-08-02 19:53:00
1:42 PM,60.8,57.2,88,30.14,10.0,SSW,8.1,-,N/A,,Overcast,210,2013-08-02 20:42:00
1:53 PM,61.0,55.9,83,30.16,10.0,SW,6.9,-,N/A,,Overcast,230,2013-08-02 20:53:00
2:36 PM,62.6,57.2,82,30.14,10.0,WSW,9.2,-,N/A,,Mostly Cloudy,250,2013-08-02 21:36:00
2:45 PM,62.6,57.2,82,30.14,10.0,WSW,10.4,-,N/A,,Scattered Clouds,240,2013-08-02 21:45:00
2:53 PM,63.0,57.0,81,30.15,10.0,WSW,10.4,-,N/A,,Mostly Cloudy,240,2013-08-02 21:53:00
3:09 PM,62.6,57.2,82,30.14,10.0,SW,10.4,-,N/A,,Overcast,230,2013-08-02 22:09:00
3:53 PM,63.0,57.0,81,30.15,10.0,SW,10.4,-,N/A,,Overcast,230,2013-08-02 22:53:00
4:06 PM,62.6,57.2,82,30.14,10.0,West,9.2,-,N/A,,Overcast,270,2013-08-02 23:06:00
4:41 PM,62.6,55.4,77,30.14,10.0,SW,10.4,-,N/A,,Scattered Clouds,230,2013-08-02 23:41:00
4:53 PM,62.1,57.0,84,30.15,10.0,SW,9.2,-,N/A,,Mostly Cloudy,230,2013-08-02 23:53:00
5:53 PM,62.1,55.9,80,30.14,10.0,WSW,9.2,-,N/A,,Overcast,240,2013-08-03 00:53:00
6:53 PM,61.0,55.9,83,30.14,10.0,WSW,8.1,-,N/A,,Overcast,240,2013-08-03 01:53:00
7:53 PM,60.1,57.0,90,30.14,10.0,SW,6.9,-,N/A,,Overcast,230,2013-08-03 02:53:00
8:53 PM,60.1,57.0,90,30.14,10.0,WSW,5.8,-,N/A,,Overcast,240,2013-08-03 03:53:00
9:02 PM,60.8,57.2,88,30.14,10.0,WSW,4.6,-,N/A,,Overcast,240,2013-08-03 04:02:00
9:53 PM,59.0,57.0,93,30.15,10.0,SW,5.8,-,N/A,,Overcast,220,2013-08-03 04:53:00
10:53 PM,60.1,57.0,90,30.15,10.0,WSW,3.5,-,N/A,,Overcast,240,2013-08-03 05:53:00
11:53 PM,59.0,55.0,87,30.14,10.0,Calm,Calm,-,N/A,,Overcast,0,2013-08-03 06:53:00